星链-4052 (STARLINK-4052 )

导读

STARLINK-4052是美国SpaceX公司星链(Starlink)星座中的一颗低轨通信卫星,于2022年7月17日发射升空。作为星链互联网星座的组成部分,它服务于全球宽带接入服务,采用平板设计与氪工质霍尔推进器,具备自主避撞能力,服役寿命约5-7年,退役后将主动离轨再入大气层焚毁。

基本信息
目录编号:
53171
目录名称:
STARLINK-4052
国际标识:
2022-083AR
轨道中心:
EARTH
卫星名称:
星链-4052
卫星全名:
星链-4052 (STARLINK-4052 )
卫星状态:
在轨 (已飞行1517 天)
发射日期:
2022-07-17 UTC
国别 :
美国 (US)
星等 :
--
该卫星已列入 空间交会检测服务 Space Conjunction Data Service (SCDS) ,当前飞行风险评估等级: 无高风险
轨道信息
数据来源 国际轨道数据 AOE轨道数据
星历时间 2026-09-10T22:58:02+0800
1天前
查看轨道信息
2026-09-10T08:00:00+0800
1天前
查看轨道信息
半长轴 6837.867km 6837.819km
偏心率 0.000094 0.0001174
轨道倾角 53.162° 53.159°
近地点辐角 72.949° 57.589°
升交点赤经 12.435° 15.357°
平近点角 287.162° 93.492°
近地点 459.087km 458.879km
远地点 460.373km 460.485km
周期 93.787分钟 93.786分钟
每日圈数 15.35401 15.354171
详细信息
固有亮度:
5
最大亮度:
2.5
卫星平台:
Starlink v1.5
覆盖范围:
全球
运营商:
太空探索技术公司
运营商所在国:
美国
制造商(研发单位):
太空探索技术公司
制造商所在国:
美国
使用方式:
暂无
卫星简介
星链(Starlink)计划是由太空探索技术公司(SpaceX)提出的一个巨型低轨卫星互联网星座项目,计划在2019年至2024年间在太空搭建由约1.2万颗卫星组成的“星链”网络,其中1584颗将部署在地球上空550千米处的近地轨道,并从2020年开始工作。该卫星仍在工作。
2D轨道图
3D轨道图
轨道高度分析图
轨道倾角分析图
轨道综合分析图
查看轨道综合分析图
交会数据列表
事件ID 空间交会对象 最接近时刻(TCA) 交会距离 交会风险概率(CRP) 交会风险指数(CRI) 操作
CDM_260913-145305-317106-945621
2026-09-13T
14:53:54+0000
2.292 km
极远距离
1.837293E-6 低风险 0.4
CDM_260911-230105-317106-834523
2026-09-11T
23:01:29+0000
2.764 km
极远距离
1.332871E-6 低风险 0.37
CDM_260913-124905-317106-961922
2026-09-13T
12:49:30+0000
1.917 km
极远距离
1.188397E-6 低风险 0.36
CDM_260909-062405-317105-854322
2026-09-09T
06:24:40+0000
2.883 km
极远距离
1.049348E-6 低风险 0.35
CDM_260912-061905-212005-317122
2026-09-12T
06:19:56+0000
2.934 km
极远距离
8.283215E-7 极低风险 0.33
与全量物体交会距离演化趋势
与全量物体交会风险概率演化趋势